国际通讯卫星 501星 (INTELSAT 501)

导读

INTELSAT 501是国际通信卫星组织(ITSO)于1981年5月23日发射的通信卫星,作为国际通信卫星系列组网成员,承担全球公共电信业务传输任务,为跨洲际电话、电报、电视广播等服务提供空间段支持,助力构建早期全球卫星通信网络,推动国际互联互通发展,是ITSO推进全球卫星通信基础设施建设的重要组成部分。

Basic Information
目录编号:
12474
目录名称:
INTELSAT 501
国际标识:
1981-050A
轨道中心:
EARTH
卫星名称:
国际通讯卫星 501星
卫星全名:
国际通讯卫星 501星 (INTELSAT 501)
卫星状态:
在轨 (已飞行16457 天)
发射日期:
1981-05-23 UTC
国别 :
(ITSO)
星等 :
--
Orbit Information
数据来源 国际轨道数据 AOE轨道数据
星历时间 2026-06-12T07:34:22+0800
1天前
查看轨道信息
2026-06-13T06:00:00+0800
3小时前
查看轨道信息
半长轴 42568.281km 42568.396km
偏心率 0.0002325 0.000246
轨道倾角 10.981° 10.979°
近地点辐角 291.622° 292.147°
升交点赤经 324.722° 324.717°
平近点角 85.849° 57.870°
近地点 36180.246km 36179.787km
远地点 36200.042km 36200.731km
周期 1456.763分钟 1456.769分钟
每日圈数 0.988493 0.988489
Detailed Information
卫星平台:
Intelsat V
平衡模式:
三轴稳定
覆盖范围:
全球
运营商:
国际卫星通信公司
运营商所在国:
美国
制造商(研发单位):
福特工程公司
制造商所在国:
美国
使用方式:
暂无
Satellite Introduction
从1965年4月至1984年3月,国际通信卫星组织发射了5代、6种不同性能的卫星共计35颗,除6颗卫星因运载火箭和远地点发动机故障而发射失败外,其余29颗卫星均被送到了预定的静止轨道位置。1984年8月前后,国际通信卫星组织利用部署在大西洋、太平洋、印度洋上空的15颗国际通信卫星,为遍布世界各地170多个国家或地区提供电话、电传、电报、电视和数据传输等电信业务;该卫星已退役。
2D Orbit Map
3D Orbit Map
Orbit Altitude Analysis Chart
Orbit Inclination Analysis Chart
Orbit Comprehensive Analysis Chart
View Comprehensive Chart